FLI7879 EGPH-BIAR

Flight info

Callsign FLI7879
Flight time 2h 1m
Altitude 38000
Route GRICE DCT RUGID DCT RATSU/M078F380 DCT ING DCT NB
Aircraft A320/M-SDE3FGHIRWY/LB1

Departure

Time 2026-05-04 19:39
Airport Edinburgh Airport (EGPH)

Arrival

Time 2026-05-04 21:40
Airport Akureyri International Airport (BIAR)
Time Latitude Longitude Altitude Speed Heading
2026-05-04 19:17 55.94906 -3.36496 116 ft 0 kts 149°
2026-05-04 19:32 55.94920 -3.36511 112 ft 4 kts 149°
2026-05-04 19:32 55.94939 -3.36532 115 ft 4 kts 140°
2026-05-04 19:33 55.94951 -3.36566 112 ft 4 kts 83°
2026-05-04 19:33 55.94943 -3.36606 112 ft 2 kts 59°
2026-05-04 19:33 55.94942 -3.36608 112 ft 0 kts 58°
2026-05-04 19:35 55.94983 -3.36488 115 ft 22 kts 59°
2026-05-04 19:35 55.95079 -3.36397 112 ft 16 kts
2026-05-04 19:36 55.95145 -3.36248 114 ft 15 kts 59°
2026-05-04 19:36 55.95196 -3.36097 115 ft 13 kts 59°
2026-05-04 19:36 55.95241 -3.35963 112 ft 12 kts 58°
2026-05-04 19:36 55.95283 -3.35843 112 ft 11 kts 58°
2026-05-04 19:37 55.95319 -3.35736 116 ft 10 kts 59°
2026-05-04 19:37 55.95377 -3.35569 115 ft 22 kts 58°
2026-05-04 19:37 55.95420 -3.35441 115 ft 20 kts 61°
2026-05-04 19:37 55.95492 -3.35432 116 ft 0 kts 330°
2026-05-04 19:38 55.95505 -3.35445 113 ft 10 kts 330°
2026-05-04 19:38 55.95570 -3.35559 113 ft 12 kts 260°
2026-05-04 19:38 55.95560 -3.35596 113 ft 0 kts 239°
2026-05-04 19:38 55.95560 -3.35597 113 ft 1 kts 239°
2026-05-04 19:39 55.95492 -3.35800 112 ft 52 kts 239°
2026-05-04 19:39 55.95180 -3.36719 113 ft 118 kts 239°
2026-05-04 19:39 55.94673 -3.38207 296 ft 150 kts 241°
2026-05-04 19:39 55.94126 -3.39798 929 ft 153 kts 240°
2026-05-04 19:40 55.93569 -3.41406 1706 ft 151 kts 242°
2026-05-04 19:40 55.93000 -3.43058 2199 ft 165 kts 243°
2026-05-04 19:40 55.92362 -3.44924 2523 ft 187 kts 242°
2026-05-04 19:40 55.91640 -3.47030 2828 ft 211 kts 241°
2026-05-04 19:41 55.90827 -3.49397 3239 ft 235 kts 242°
2026-05-04 19:41 55.90167 -3.52144 3824 ft 247 kts 266°
2026-05-04 19:41 55.90409 -3.55164 4675 ft 249 kts 292°
2026-05-04 19:41 55.91318 -3.57741 5547 ft 252 kts 315°
2026-05-04 19:42 55.92829 -3.59367 6398 ft 260 kts 342°
2026-05-04 19:42 55.94629 -3.59968 7199 ft 266 kts 348°
2026-05-04 19:42 55.96468 -3.60478 8054 ft 269 kts 348°
2026-05-04 19:42 55.98340 -3.60996 8892 ft 274 kts 348°
2026-05-04 19:43 56.00239 -3.61525 9716 ft 279 kts 348°
2026-05-04 19:43 56.02186 -3.62076 10336 ft 291 kts 347°
2026-05-04 19:43 56.04266 -3.62675 10594 ft 314 kts 348°
2026-05-04 19:43 56.06442 -3.63302 11093 ft 325 kts 348°
2026-05-04 19:44 56.08697 -3.63947 11812 ft 330 kts 348°
2026-05-04 19:44 56.10974 -3.64620 12564 ft 333 kts 345°
2026-05-04 19:44 56.13232 -3.65622 13313 ft 335 kts 342°
2026-05-04 19:44 56.15511 -3.66666 14044 ft 339 kts 342°
2026-05-04 19:45 56.17806 -3.67719 14693 ft 342 kts 342°
2026-05-04 19:45 56.20068 -3.69055 15321 ft 343 kts 333°
2026-05-04 19:45 56.22183 -3.71049 15962 ft 344 kts 328°
2026-05-04 19:45 56.24265 -3.73130 16611 ft 347 kts 328°
2026-05-04 19:46 56.26389 -3.75262 17323 ft 349 kts 327°
2026-05-04 19:46 56.28517 -3.77403 17988 ft 352 kts 327°
2026-05-04 19:46 56.30667 -3.79569 18577 ft 355 kts 327°
2026-05-04 19:46 56.32841 -3.81756 19112 ft 358 kts 327°
2026-05-04 19:47 56.34996 -3.83926 19669 ft 361 kts 327°
2026-05-04 19:47 56.37204 -3.86147 20216 ft 364 kts 327°
2026-05-04 19:47 56.39430 -3.88388 20757 ft 367 kts 326°
2026-05-04 19:47 56.41669 -3.90652 21312 ft 370 kts 326°
2026-05-04 19:48 56.43929 -3.92941 21874 ft 373 kts 326°
2026-05-04 19:48 56.46181 -3.95224 22423 ft 376 kts 326°
2026-05-04 19:48 56.48479 -3.97552 22955 ft 380 kts 326°
2026-05-04 19:48 56.50799 -3.99903 23462 ft 383 kts 326°
2026-05-04 19:49 56.53129 -4.02273 23972 ft 384 kts 326°
2026-05-04 19:49 56.55470 -4.04652 24412 ft 386 kts 326°
2026-05-04 19:49 56.57794 -4.07023 24818 ft 388 kts 326°
2026-05-04 19:49 56.60153 -4.09436 25247 ft 390 kts 326°
2026-05-04 19:50 56.62525 -4.11869 25641 ft 392 kts 326°
2026-05-04 19:50 56.64909 -4.14314 26009 ft 395 kts 326°
2026-05-04 19:50 56.67324 -4.16789 26388 ft 397 kts 326°
2026-05-04 19:50 56.69709 -4.19238 26767 ft 399 kts 326°
2026-05-04 19:51 56.72141 -4.21745 27146 ft 402 kts 326°
2026-05-04 19:51 56.74578 -4.24264 27522 ft 404 kts 326°
2026-05-04 19:51 56.77035 -4.26802 27921 ft 406 kts 326°
2026-05-04 19:51 56.79497 -4.29348 28321 ft 406 kts 326°
2026-05-04 19:52 56.81937 -4.31872 28692 ft 408 kts 326°
2026-05-04 19:52 56.84422 -4.34443 29049 ft 410 kts 326°
2026-05-04 19:52 56.86914 -4.37028 29386 ft 412 kts 326°
2026-05-04 19:52 56.89410 -4.39621 29723 ft 414 kts 326°
2026-05-04 19:53 56.91890 -4.42206 30030 ft 415 kts 326°
2026-05-04 19:53 56.94414 -4.44843 30298 ft 417 kts 326°
2026-05-04 19:53 56.96943 -4.47495 30558 ft 419 kts 326°
2026-05-04 19:53 56.99479 -4.50159 30789 ft 420 kts 326°
2026-05-04 19:54 57.01995 -4.52803 31035 ft 422 kts 326°
2026-05-04 19:54 57.04547 -4.55484 31330 ft 422 kts 325°
2026-05-04 19:54 57.07098 -4.58167 31672 ft 420 kts 325°
2026-05-04 19:54 57.09633 -4.60835 32027 ft 418 kts 325°
2026-05-04 19:55 57.12153 -4.63491 32376 ft 417 kts 325°
2026-05-04 19:55 57.14648 -4.66124 32714 ft 416 kts 325°
2026-05-04 19:55 57.17161 -4.68779 33038 ft 415 kts 325°
2026-05-04 19:55 57.19664 -4.71433 33351 ft 414 kts 325°
2026-05-04 19:56 57.22159 -4.74083 33695 ft 412 kts 325°
2026-05-04 19:56 57.24644 -4.76727 34024 ft 411 kts 325°
2026-05-04 19:56 57.27098 -4.79347 34293 ft 411 kts 325°
2026-05-04 19:56 57.29573 -4.81996 34572 ft 411 kts 325°
2026-05-04 19:57 57.32042 -4.84642 34835 ft 410 kts 325°
2026-05-04 19:57 57.34514 -4.87292 35063 ft 410 kts 325°
2026-05-04 19:57 57.36979 -4.89958 35286 ft 410 kts 324°
2026-05-04 19:57 57.39405 -4.92746 35484 ft 409 kts 322°
2026-05-04 19:58 57.41793 -4.95650 35688 ft 409 kts 322°
2026-05-04 19:58 57.44149 -4.98610 35885 ft 409 kts 321°
2026-05-04 19:58 57.46475 -5.01565 36079 ft 409 kts 321°
2026-05-04 19:58 57.48837 -5.04562 36278 ft 410 kts 321°
2026-05-04 19:59 57.51205 -5.07544 36458 ft 410 kts 322°
2026-05-04 19:59 57.53575 -5.10510 36643 ft 411 kts 322°
2026-05-04 19:59 57.55957 -5.13475 36854 ft 411 kts 322°
2026-05-04 19:59 57.58337 -5.16433 37038 ft 411 kts 322°
2026-05-04 20:00 57.60685 -5.19355 37217 ft 411 kts 322°
2026-05-04 20:00 57.63063 -5.22322 37399 ft 411 kts 322°
2026-05-04 20:00 57.65444 -5.25300 37541 ft 411 kts 322°
2026-05-04 20:00 57.67825 -5.28286 37691 ft 412 kts 322°
2026-05-04 20:01 57.70210 -5.31278 37856 ft 412 kts 322°
2026-05-04 20:01 57.72594 -5.34280 38009 ft 413 kts 322°
2026-05-04 20:01 57.74973 -5.37287 38037 ft 413 kts 322°
2026-05-04 20:02 57.79708 -5.43286 38037 ft 413 kts 322°
2026-05-04 20:02 57.84483 -5.49343 38029 ft 414 kts 322°
2026-05-04 20:03 57.89273 -5.55437 38036 ft 415 kts 322°
2026-05-04 20:03 57.94024 -5.61513 38034 ft 415 kts 322°
2026-05-04 20:04 57.98815 -5.67647 38043 ft 416 kts 322°
2026-05-04 20:04 58.03574 -5.73773 38040 ft 416 kts 322°
2026-05-04 20:05 58.08365 -5.79958 38075 ft 416 kts 322°
2026-05-04 20:05 58.13165 -5.86166 38060 ft 417 kts 322°
2026-05-04 20:06 58.17923 -5.92341 38059 ft 417 kts 322°
2026-05-04 20:06 58.22721 -5.98581 38057 ft 417 kts 322°
2026-05-04 20:07 58.27509 -6.04849 38055 ft 417 kts 322°
2026-05-04 20:07 58.32259 -6.11098 38053 ft 417 kts 322°
2026-05-04 20:08 58.37037 -6.17379 38033 ft 414 kts 322°
2026-05-04 20:08 58.41758 -6.23606 38031 ft 414 kts 322°
2026-05-04 20:09 58.46514 -6.29904 38039 ft 415 kts 322°
2026-05-04 20:09 58.51234 -6.36175 38046 ft 415 kts 322°
2026-05-04 20:10 58.55984 -6.42516 38053 ft 415 kts 321°
2026-05-04 20:10 58.60732 -6.48870 38060 ft 416 kts 321°
2026-05-04 20:11 58.65457 -6.55210 38057 ft 416 kts 321°
2026-05-04 20:11 58.70195 -6.61593 38058 ft 416 kts 321°
2026-05-04 20:12 58.74944 -6.68014 38058 ft 416 kts 321°
2026-05-04 20:12 58.79656 -6.74403 38059 ft 416 kts 321°
2026-05-04 20:13 58.84391 -6.80838 38059 ft 416 kts 321°
2026-05-04 20:13 58.89111 -6.87281 38048 ft 414 kts 321°
2026-05-04 20:14 58.93783 -6.93690 38049 ft 414 kts 321°
2026-05-04 20:14 58.98480 -7.00159 38054 ft 414 kts 321°
2026-05-04 20:15 59.03185 -7.06644 38056 ft 414 kts 321°
2026-05-04 20:15 59.07858 -7.13100 38060 ft 414 kts 321°
2026-05-04 20:16 59.12549 -7.19624 38085 ft 414 kts 321°
2026-05-04 20:16 59.17243 -7.26179 38066 ft 413 kts 321°
2026-05-04 20:17 59.21924 -7.32726 38065 ft 414 kts 321°
2026-05-04 20:17 59.26576 -7.39242 38062 ft 414 kts 321°
2026-05-04 20:18 59.31255 -7.45831 38067 ft 414 kts 321°
2026-05-04 20:18 59.35903 -7.52410 38064 ft 414 kts 321°
2026-05-04 20:19 59.40573 -7.59016 38057 ft 412 kts 321°
2026-05-04 20:19 59.45221 -7.65620 38055 ft 411 kts 321°
2026-05-04 20:20 59.49831 -7.72211 38060 ft 411 kts 321°
2026-05-04 20:20 59.54458 -7.78852 38063 ft 411 kts 321°
2026-05-04 20:21 59.59100 -7.85521 38044 ft 412 kts 321°
2026-05-04 20:21 59.66013 -7.95506 38102 ft 411 kts 320°
2026-05-04 20:22 59.70632 -8.02206 38092 ft 411 kts 320°
2026-05-04 20:22 59.75251 -8.08931 38087 ft 411 kts 320°
2026-05-04 20:23 59.79834 -8.15617 38086 ft 410 kts 320°
2026-05-04 20:23 59.84420 -8.22329 38092 ft 410 kts 320°
2026-05-04 20:24 59.89019 -8.29100 38090 ft 410 kts 320°
2026-05-04 20:24 59.93608 -8.35883 38098 ft 409 kts 320°
2026-05-04 20:25 59.98153 -8.42615 38089 ft 408 kts 320°
2026-05-04 20:25 60.01977 -8.48295 38102 ft 409 kts 320°
2026-05-04 20:26 60.06517 -8.55060 38100 ft 409 kts 320°
2026-05-04 20:26 60.11092 -8.61908 38099 ft 409 kts 320°
2026-05-04 20:27 60.15622 -8.68709 38111 ft 409 kts 320°
2026-05-04 20:27 60.20186 -8.75590 38130 ft 409 kts 320°
2026-05-04 20:28 60.24737 -8.82478 38140 ft 408 kts 320°
2026-05-04 20:28 60.29247 -8.89318 38131 ft 408 kts 320°
2026-05-04 20:29 60.33780 -8.96224 38141 ft 408 kts 320°
2026-05-04 20:29 60.38317 -9.03158 38126 ft 407 kts 320°
2026-05-04 20:30 60.42808 -9.10047 38134 ft 407 kts 320°
2026-05-04 20:30 60.47333 -9.17013 38154 ft 407 kts 320°
2026-05-04 20:31 60.51838 -9.23980 38146 ft 407 kts 320°
2026-05-04 20:31 60.56312 -9.30931 38146 ft 407 kts 320°
2026-05-04 20:32 60.60817 -9.37932 38144 ft 407 kts 320°
2026-05-04 20:32 60.65316 -9.44936 38147 ft 406 kts 320°
2026-05-04 20:33 60.69779 -9.51927 38145 ft 406 kts 319°
2026-05-04 20:33 60.74254 -9.58986 38144 ft 405 kts 319°
2026-05-04 20:34 60.78735 -9.66060 38129 ft 405 kts 320°
2026-05-04 20:34 60.83170 -9.73079 38136 ft 405 kts 319°
2026-05-04 20:35 60.87622 -9.80155 38140 ft 405 kts 319°
2026-05-04 20:35 60.92068 -9.87257 38141 ft 405 kts 319°
2026-05-04 20:36 60.96515 -9.94376 38145 ft 405 kts 319°
2026-05-04 20:36 61.00859 -10.01725 38175 ft 403 kts 313°
2026-05-04 20:37 61.04831 -10.09881 38165 ft 403 kts 313°
2026-05-04 20:37 61.08810 -10.18052 38163 ft 403 kts 313°
2026-05-04 20:38 61.12783 -10.26248 38163 ft 403 kts 313°
2026-05-04 20:38 61.16749 -10.34471 38163 ft 404 kts 313°
2026-05-04 20:39 61.20714 -10.42733 38169 ft 404 kts 313°
2026-05-04 20:39 61.24670 -10.51005 38139 ft 404 kts 313°
2026-05-04 20:40 61.28627 -10.59295 38155 ft 404 kts 313°
2026-05-04 20:40 61.32583 -10.67608 38162 ft 404 kts 313°
2026-05-04 20:41 61.36526 -10.75928 38167 ft 403 kts 313°
2026-05-04 20:41 61.40461 -10.84284 38168 ft 403 kts 313°
2026-05-04 20:42 61.44388 -10.92662 38172 ft 403 kts 313°
2026-05-04 20:42 61.48310 -11.01044 38216 ft 403 kts 313°
2026-05-04 20:43 61.52234 -11.09452 38170 ft 403 kts 313°
2026-05-04 20:43 61.56151 -11.17880 38169 ft 404 kts 312°
2026-05-04 20:44 61.60040 -11.26283 38170 ft 404 kts 312°
2026-05-04 20:44 61.63950 -11.34778 38172 ft 404 kts 312°
2026-05-04 20:45 61.67854 -11.43296 38148 ft 404 kts 312°
2026-05-04 20:45 61.71751 -11.51823 38168 ft 404 kts 312°
2026-05-04 20:46 61.75645 -11.60358 38186 ft 403 kts 312°
2026-05-04 20:46 61.79516 -11.68893 38184 ft 402 kts 312°
2026-05-04 20:47 61.83383 -11.77463 38183 ft 403 kts 312°
2026-05-04 20:47 61.87261 -11.86055 38190 ft 403 kts 312°
2026-05-04 20:48 61.91125 -11.94671 38194 ft 403 kts 312°
2026-05-04 20:48 61.94985 -12.03307 38195 ft 403 kts 312°
2026-05-04 20:49 61.98844 -12.11977 38195 ft 403 kts 312°
2026-05-04 20:49 62.02683 -12.20640 38197 ft 401 kts 312°
2026-05-04 20:50 62.06501 -12.29306 38193 ft 401 kts 312°
2026-05-04 20:50 62.10318 -12.37978 38155 ft 400 kts 312°
2026-05-04 20:51 62.14123 -12.46671 38184 ft 400 kts 312°
2026-05-04 20:51 62.17917 -12.55372 38196 ft 400 kts 312°
2026-05-04 20:52 62.21704 -12.64086 38201 ft 400 kts 311°
2026-05-04 20:52 62.25493 -12.72831 38236 ft 400 kts 311°
2026-05-04 20:53 62.29269 -12.81613 38222 ft 400 kts 311°
2026-05-04 20:53 62.33043 -12.90409 38213 ft 400 kts 311°
2026-05-04 20:54 62.36810 -12.99222 38214 ft 400 kts 311°
2026-05-04 20:54 62.40583 -13.08047 38213 ft 400 kts 311°
2026-05-04 20:55 62.44313 -13.16821 38218 ft 399 kts 311°
2026-05-04 20:55 62.48060 -13.25695 38216 ft 399 kts 311°
2026-05-04 20:56 62.51799 -13.34599 38188 ft 400 kts 311°
2026-05-04 20:56 62.55539 -13.43523 38200 ft 400 kts 311°
2026-05-04 20:57 62.59271 -13.52470 38200 ft 400 kts 311°
2026-05-04 20:57 62.62999 -13.61450 38207 ft 400 kts 311°
2026-05-04 20:58 62.66726 -13.70437 38206 ft 400 kts 311°
2026-05-04 20:58 62.70452 -13.79455 38216 ft 400 kts 311°
2026-05-04 20:59 62.74166 -13.88488 38215 ft 400 kts 310°
2026-05-04 20:59 62.77874 -13.97558 38236 ft 401 kts 310°
2026-05-04 21:00 62.81582 -14.06671 38226 ft 401 kts 310°
2026-05-04 21:00 62.85285 -14.15794 38231 ft 401 kts 310°
2026-05-04 21:01 62.88992 -14.24942 38232 ft 402 kts 310°
2026-05-04 21:01 62.92699 -14.34136 38225 ft 402 kts 310°
2026-05-04 21:02 62.96387 -14.43350 38203 ft 401 kts 310°
2026-05-04 21:02 63.00039 -14.52533 38253 ft 401 kts 310°
2026-05-04 21:03 63.03711 -14.61776 38242 ft 401 kts 310°
2026-05-04 21:03 63.07385 -14.71048 38240 ft 401 kts 310°
2026-05-04 21:04 63.11049 -14.80344 38236 ft 401 kts 310°
2026-05-04 21:04 63.14710 -14.89661 38233 ft 401 kts 310°
2026-05-04 21:05 63.18363 -14.98997 38234 ft 401 kts 310°
2026-05-04 21:05 63.22002 -15.08358 38233 ft 401 kts 310°
2026-05-04 21:06 63.25639 -15.17735 38238 ft 400 kts 310°
2026-05-04 21:06 63.29261 -15.27112 38230 ft 399 kts 310°
2026-05-04 21:07 63.32873 -15.36492 38227 ft 399 kts 310°
2026-05-04 21:07 63.36472 -15.45919 38194 ft 399 kts 310°
2026-05-04 21:08 63.40065 -15.55379 38214 ft 400 kts 310°
2026-05-04 21:08 63.43660 -15.64845 38223 ft 400 kts 310°
2026-05-04 21:09 63.47250 -15.74331 38226 ft 400 kts 309°
2026-05-04 21:09 63.50834 -15.83851 38247 ft 400 kts 309°
2026-05-04 21:10 63.53807 -15.91783 38239 ft 400 kts 309°
2026-05-04 21:10 63.57372 -16.01340 38235 ft 399 kts 309°
2026-05-04 21:11 63.60930 -16.10918 38233 ft 399 kts 309°
2026-05-04 21:11 63.64482 -16.20524 38228 ft 399 kts 309°
2026-05-04 21:12 63.68033 -16.30162 38234 ft 400 kts 309°
2026-05-04 21:12 63.71576 -16.39810 38233 ft 399 kts 309°
2026-05-04 21:13 63.75107 -16.49478 38234 ft 399 kts 309°
2026-05-04 21:13 63.78675 -16.59099 38230 ft 399 kts 314°
2026-05-04 21:14 63.83247 -16.66230 38120 ft 405 kts 334°
2026-05-04 21:14 63.85888 -16.68481 37685 ft 405 kts 336°
2026-05-04 21:14 63.88523 -16.70647 37089 ft 402 kts 335°
2026-05-04 21:15 63.91148 -16.72813 36411 ft 401 kts 335°
2026-05-04 21:15 63.93759 -16.74990 35702 ft 400 kts 334°
2026-05-04 21:15 63.96361 -16.77175 35071 ft 396 kts 334°
2026-05-04 21:15 63.98925 -16.79336 34608 ft 390 kts 333°
2026-05-04 21:16 64.01457 -16.81471 34163 ft 385 kts 333°
2026-05-04 21:16 64.03954 -16.83575 33597 ft 379 kts 333°
2026-05-04 21:16 64.06410 -16.85639 33125 ft 372 kts 333°
2026-05-04 21:16 64.08818 -16.87670 32653 ft 366 kts 333°
2026-05-04 21:17 64.11181 -16.89672 32182 ft 359 kts 332°
2026-05-04 21:17 64.13499 -16.91634 31768 ft 352 kts 332°
2026-05-04 21:17 64.15774 -16.93567 31323 ft 346 kts 332°
2026-05-04 21:17 64.18014 -16.95480 30893 ft 340 kts 332°
2026-05-04 21:18 64.20215 -16.97361 30467 ft 335 kts 332°
2026-05-04 21:18 64.22378 -16.99210 30014 ft 329 kts 332°
2026-05-04 21:18 64.24504 -17.01032 29604 ft 323 kts 332°
2026-05-04 21:18 64.26585 -17.02816 29229 ft 316 kts 331°
2026-05-04 21:19 64.28623 -17.04565 28855 ft 310 kts 331°
2026-05-04 21:19 64.30622 -17.06286 28547 ft 304 kts 331°
2026-05-04 21:19 64.32588 -17.07986 28137 ft 299 kts 331°
2026-05-04 21:19 64.34517 -17.09654 27792 ft 293 kts 331°
2026-05-04 21:20 64.36411 -17.11285 27467 ft 287 kts 331°
2026-05-04 21:20 64.38262 -17.12884 27136 ft 281 kts 330°
2026-05-04 21:20 64.40078 -17.14461 26826 ft 277 kts 330°
2026-05-04 21:20 64.41878 -17.16035 26512 ft 276 kts 330°
2026-05-04 21:21 64.43668 -17.17601 26190 ft 274 kts 330°
2026-05-04 21:21 64.45450 -17.19155 25868 ft 273 kts 330°
2026-05-04 21:21 64.47226 -17.20701 25548 ft 271 kts 330°
2026-05-04 21:21 64.48987 -17.22239 25238 ft 270 kts 330°
2026-05-04 21:22 64.50739 -17.23770 24908 ft 268 kts 330°
2026-05-04 21:22 64.52483 -17.25294 24578 ft 267 kts 330°
2026-05-04 21:22 64.54218 -17.26808 24246 ft 266 kts 330°
2026-05-04 21:22 64.55943 -17.28319 23909 ft 264 kts 330°
2026-05-04 21:23 64.57656 -17.29827 23527 ft 263 kts 330°
2026-05-04 21:23 64.59363 -17.31337 23178 ft 262 kts 331°
2026-05-04 21:23 64.61073 -17.32848 22867 ft 264 kts 332°
2026-05-04 21:23 64.62769 -17.34346 22511 ft 265 kts 332°
2026-05-04 21:24 64.64492 -17.35871 22169 ft 265 kts 332°
2026-05-04 21:24 64.66223 -17.37401 21826 ft 266 kts 333°
2026-05-04 21:24 64.67958 -17.38937 21484 ft 267 kts 333°
2026-05-04 21:24 64.69696 -17.40481 21142 ft 268 kts 333°
2026-05-04 21:25 64.71438 -17.42030 20797 ft 268 kts 333°
2026-05-04 21:25 64.73183 -17.43590 20461 ft 269 kts 334°
2026-05-04 21:25 64.74934 -17.45157 20117 ft 270 kts 334°
2026-05-04 21:25 64.76692 -17.46731 19771 ft 271 kts 334°
2026-05-04 21:26 64.78454 -17.48306 19423 ft 272 kts 335°
2026-05-04 21:26 64.80224 -17.49887 19079 ft 273 kts 335°
2026-05-04 21:26 64.82000 -17.51475 18734 ft 274 kts 336°
2026-05-04 21:26 64.83782 -17.53071 18353 ft 274 kts 336°
2026-05-04 21:27 64.85569 -17.54675 17997 ft 275 kts 336°
2026-05-04 21:27 64.87333 -17.56257 17653 ft 275 kts 336°
2026-05-04 21:27 64.89121 -17.57868 17309 ft 275 kts 336°
2026-05-04 21:27 64.90946 -17.59513 16965 ft 280 kts 338°
2026-05-04 21:28 64.92754 -17.61145 16616 ft 283 kts 338°
2026-05-04 21:28 64.94593 -17.62808 16258 ft 283 kts 338°
2026-05-04 21:28 64.96424 -17.64474 15911 ft 282 kts 339°
2026-05-04 21:28 64.98252 -17.66139 15563 ft 281 kts 339°
2026-05-04 21:29 65.00077 -17.67803 15218 ft 281 kts 339°
2026-05-04 21:29 65.01899 -17.69464 14863 ft 280 kts 339°
2026-05-04 21:29 65.03721 -17.71123 14527 ft 280 kts 340°
2026-05-04 21:29 65.05540 -17.72780 14177 ft 280 kts 340°
2026-05-04 21:30 65.07360 -17.74439 13793 ft 280 kts 340°
2026-05-04 21:30 65.09172 -17.76095 13439 ft 278 kts 340°
2026-05-04 21:30 65.10970 -17.77752 13093 ft 277 kts 340°
2026-05-04 21:30 65.12761 -17.79403 12736 ft 275 kts 340°
2026-05-04 21:31 65.16308 -17.82670 12021 ft 272 kts 340°
2026-05-04 21:31 65.18071 -17.84295 11675 ft 271 kts 340°
2026-05-04 21:31 65.19821 -17.85903 11323 ft 269 kts 339°
2026-05-04 21:32 65.21568 -17.87510 10961 ft 268 kts 339°
2026-05-04 21:32 65.23302 -17.89115 10604 ft 267 kts 339°
2026-05-04 21:32 65.25027 -17.90719 10348 ft 265 kts 339°
2026-05-04 21:32 65.26767 -17.92342 10267 ft 271 kts 339°
2026-05-04 21:33 65.28540 -17.93997 9686 ft 279 kts 339°
2026-05-04 21:33 65.30361 -17.95695 8936 ft 286 kts 339°
2026-05-04 21:33 65.32246 -17.97450 8109 ft 295 kts 340°
2026-05-04 21:33 65.34156 -17.99233 7698 ft 290 kts 340°
2026-05-04 21:34 65.35985 -18.00956 7544 ft 273 kts 339°
2026-05-04 21:34 65.37674 -18.02544 7331 ft 251 kts 340°
2026-05-04 21:34 65.39247 -18.04027 7052 ft 234 kts 340°
2026-05-04 21:34 65.40744 -18.05137 6798 ft 218 kts 351°
2026-05-04 21:35 65.42212 -18.05467 6534 ft 207 kts 357°
2026-05-04 21:35 65.43603 -18.05577 6258 ft 198 kts 359°
2026-05-04 21:35 65.44940 -18.05663 6018 ft 185 kts 358°
2026-05-04 21:35 65.46196 -18.05745 5739 ft 173 kts 359°
2026-05-04 21:36 65.47358 -18.05820 5472 ft 165 kts 358°
2026-05-04 21:36 65.48482 -18.05894 5201 ft 157 kts 358°
2026-05-04 21:36 65.49560 -18.05965 4928 ft 153 kts 358°
2026-05-04 21:36 65.50616 -18.06036 4818 ft 153 kts 357°
2026-05-04 21:37 65.51686 -18.06107 4628 ft 154 kts 357°
2026-05-04 21:37 65.52757 -18.06178 4303 ft 155 kts 357°
2026-05-04 21:37 65.53842 -18.06250 3947 ft 157 kts 357°
2026-05-04 21:37 65.54929 -18.06321 3591 ft 153 kts 356°
2026-05-04 21:38 65.55975 -18.06390 3187 ft 147 kts 356°
2026-05-04 21:38 65.56977 -18.06457 2836 ft 143 kts 357°
2026-05-04 21:38 65.57954 -18.06521 2470 ft 138 kts 355°
2026-05-04 21:38 65.58895 -18.06584 2074 ft 132 kts 356°
2026-05-04 21:39 65.59797 -18.06644 1715 ft 127 kts 357°
2026-05-04 21:39 65.60671 -18.06703 1413 ft 125 kts 357°
2026-05-04 21:39 65.61538 -18.06757 1106 ft 125 kts 358°
2026-05-04 21:39 65.62413 -18.06720 768 ft 126 kts
2026-05-04 21:40 65.63277 -18.06746 504 ft 124 kts 357°
2026-05-04 21:40 65.64130 -18.06912 176 ft 122 kts 355°
2026-05-04 21:40 65.64949 -18.07068 27 ft 109 kts 357°
2026-05-04 21:40 65.65483 -18.07171 17 ft 49 kts 355°
2026-05-04 21:41 65.65651 -18.07223 18 ft 6 kts 14°
2026-05-04 21:41 65.65647 -18.07199 20 ft 1 kts 157°
2026-05-04 21:41 65.65585 -18.07186 18 ft 24 kts 176°
2026-05-04 21:41 65.65484 -18.07234 17 ft 11 kts 244°
2026-05-04 21:42 65.65476 -18.07403 17 ft 11 kts 265°
2026-05-04 21:42 65.65481 -18.07476 17 ft 3 kts 343°
2026-05-04 21:42 65.65483 -18.07477 17 ft 0 kts 344°